Gargždų

Lithuania     55˚42′41″N   21˚23′26″E
temp.,
°C
wind,
m/s
gust,
m/s
humid.,
%
clouds,
%
prec.,
mm/h
press.,
hPa
HPBL,
m
28 november, sat
sat2823:00+2˚n498893 0.1 1017569
02:00nne398947 0.1 1018464
05:00n389611 0.0 1020341
08:00+2˚nne398647 0.1 1022909
11:00+3˚n588499 0.0 1023790
14:00+3˚nne4884100 0.1 1022732
17:00+2˚nne489398 0.1 1022582
20:00+2˚nne489698 0.3 1023468
29 november, sun
sun2923:00ne388971 0.1 1023366
02:00nne379460 0.1 1024258
05:00+1˚ene378678 0.0 1024528
08:00ne378482 0.0 1024283
11:00ene36830 0.0 1024349
14:00+1˚ne35820 0.0 1024415
17:00ne358742 0.0 1023370
20:00nne237968 0.0 1023610
30 november, mon
mon3023:00−1˚nw248699 0.0 1022176
02:00nnw258299 0.1 1022344
05:00−1˚n129298 0.1 1021129
08:00−1˚wsw009294 0.1 102125
11:00ssw238391 0.0 1021201
14:00+1˚ssw358895 0.0 1021342
17:00sse359799 0.0 1020178
20:00+1˚sse349892 0.3 1020172
1 december, tue
tue123:00+2˚sw2692100 0.6 1019265
02:00+3˚sw4109098 0.9 1020504
05:00+3˚ssw51090100 0.6 1020502
08:00+2˚s61095100 0.9 1021518
11:00+1˚s5885100 0.1 1022519
14:00+1˚s478199 0.1 1024691
17:00sse478699 0.0 1024350
20:00sse4786100 0.0 1026371
2 december, wed
wed223:00−1˚sse488798 0.0 1027311
02:00−1˚sse378698 0.0 1027288
05:00−2˚se3687100 0.0 1027271
08:00−2˚se3787100 0.0 1027290
11:00−1˚se4778100 0.0 1028361
14:00se477596 0.0 1027384
17:00−2˚se488440 0.0 1026344
20:00−2˚se4108220 0.0 1026384